San Antonio Stinson, TX

2:40 AM CDT on July 25, 2017 (GMT -0500)
Stinson Municipal

Weather History for KSSF - February, 2012

Change the Weather History Date:

Thursday, February 23, 2012

  Actual Average Record
Temperature  
Mean Temperature 69 °F -  
Max Temperature 84 °F 65 °F 91 °F (2017)
Min Temperature 54 °F 46 °F 30 °F (2009)
Cooling Degree Days 4    
Growing Degree Days 19 (Base 50)    
Moisture  
Dew Point 57 °F    
Average Humidity 69    
Maximum Humidity 97    
Minimum Humidity 31    
Precipitation  
Precipitation 0.00 in - - ()
Sea Level Pressure  
Sea Level Pressure 29.64 in    
Wind  
Wind Speed 3 mph (SW)    
Max Wind Speed 10 mph    
Max Gust Speed -    
Visibility 9 miles    
Events      
Averages and records for this station are not official NWS values.
T = Trace of Precipitation, MM = Missing Value Source: NWS Daily Summary

Daily Weather History Graph

Daily Weather History Graph

Search for Another Location

Airport or City:

Trip Planner

Search our weather history database for the weather conditions in past years. The results will help you decide how hot, cold, wet, or windy it might be!

Date:

Astronomy

Feb. 23, 2012 Rise Set
Actual Time 7:05 AM CST 6:28 PM CST
Civil Twilight 6:41 AM CST 6:53 PM CST
Nautical Twilight 6:14 AM CST 7:20 PM CST
Astronomical Twilight 5:46 AM CST 7:48 PM CST
Moon 7:45 AM CST (2/23) 8:20 PM CST (2/23)
Length of Visible Light 12h 11m
Length of Day
11h 22m
Waxing Crescent, 3% of the Moon is Illuminated
Feb 23
Waxing Crescent
Feb 29
First Quarter
Mar 8
Full
Mar 14
Last Quarter
Mar 22
New

Hourly Weather History & Observations

Time (CST) Temp. Heat Index Dew Point Humidity Pressure Visibility Wind Dir Wind Speed Gust Speed Precip Events Conditions
12:53 AM 61.0 °F - 52.0 °F 72% 29.71 in 10.0 mi Calm Calm - N/A   Clear
1:53 AM 57.9 °F - 52.0 °F 81% 29.70 in 10.0 mi West 3.5 mph - N/A   Clear
2:53 AM 57.0 °F - 54.0 °F 89% 29.68 in 10.0 mi NW 3.5 mph - N/A   Clear
3:53 AM 54.0 °F - 51.1 °F 90% 29.66 in 10.0 mi Calm Calm - N/A   Clear
4:53 AM 55.0 °F - 52.0 °F 89% 29.65 in 10.0 mi Calm Calm - N/A   Clear
5:53 AM 54.0 °F - 52.0 °F 93% 29.65 in 10.0 mi Calm Calm - N/A   Clear
6:53 AM 55.0 °F - 53.1 °F 93% 29.67 in 9.0 mi Calm Calm - N/A   Clear
8:53 AM 64.0 °F - 57.0 °F 78% 29.70 in 9.0 mi Calm Calm - N/A   Clear
9:53 AM 73.0 °F - 59.0 °F 61% 29.69 in 10.0 mi West 6.9 mph - N/A   Clear
10:53 AM 75.9 °F - 63.0 °F 64% 29.68 in 10.0 mi WSW 10.4 mph - N/A   Clear
11:53 AM 81.0 °F 82.5 °F 64.0 °F 56% 29.66 in 10.0 mi WSW 9.2 mph - N/A   Clear
12:53 PM 82.9 °F 83.3 °F 61.0 °F 47% 29.62 in 10.0 mi SW 8.1 mph - N/A   Clear
1:53 PM 82.9 °F 82.8 °F 59.0 °F 44% 29.60 in 10.0 mi WSW 3.5 mph - N/A   Clear
2:53 PM 84.0 °F - 50.0 °F 31% 29.58 in 10.0 mi SW 6.9 mph - N/A   Clear
3:53 PM 82.9 °F 81.8 °F 53.1 °F 36% 29.58 in 10.0 mi WSW 4.6 mph - N/A   Clear
4:53 PM 82.0 °F 81.3 °F 54.0 °F 38% 29.57 in 10.0 mi SSW 4.6 mph - N/A   Clear
5:53 PM 80.1 °F 80.0 °F 54.0 °F 40% 29.57 in 10.0 mi Calm Calm - N/A   Clear
6:53 PM 73.9 °F - 55.9 °F 53% 29.58 in 10.0 mi SW 3.5 mph - N/A   Clear
7:53 PM 68.0 °F - 59.0 °F 73% 29.60 in 10.0 mi SSE 4.6 mph - N/A   Clear
8:53 PM 73.0 °F - 66.9 °F 81% 29.60 in 8.0 mi South 4.6 mph - N/A   Clear
9:53 PM 70.0 °F - 66.0 °F 87% 29.62 in 7.0 mi Calm Calm - N/A   Clear
10:53 PM 66.9 °F - 64.0 °F 90% 29.64 in 5.0 mi Calm Calm - N/A   Clear
11:53 PM 64.9 °F - 64.0 °F 97% 29.66 in 5.0 mi SW 3.5 mph - N/A   Clear